Regional Weather Roundup
Issued by NWS State College, PA

Home | Current Version | Previous Version | Graphics & Text | Print | Product List | Glossary Off
Versions: 1 2 3 4 5 6 7 8 9 10 11 12 13 14 15 16 17 18 19 20 21 22 23 24 25 26 27 28 29 30 31 32 33 34 35 36 37 38 39 40 41 42 43 44 45 46 47 48 49 50

000
ASUS41 KCTP 240310
RWRCTP

REGIONAL WEATHER ROUNDUP
NATIONAL WEATHER SERVICE STATE COLLEGE PA
1100 PM EDT SAT MAY 23 2015

Note: "fair" indicates few or no clouds below 12,000 feet with no
significant weather and/or obstructions to visibility.

* = STATION THAT DOES NOT REPORT PRECIPITATION /E.G. RAIN...SNOW...ETC/
    THUNDER OR FOG.

PAZ002>004-007>009-013>016-020>023-029>032-240400-
WESTERN PENNSYLVANIA

CITY           SKY/WX    TMP DP  RH WIND       PRES   REMARKS
ERIE           CLEAR     54  34  46 CALM      30.31S
MEADVILLE      CLEAR     57  34  41 CALM      30.33S
FRANKLIN*      CLEAR     54  34  47 SE3       30.35S
NEW CASTLE     FAIR      51  41  69 CALM      30.34S
BEAVER COUNTY  NOT AVBL
BUTLER*        CLEAR     54  37  54 CALM      30.37R
PITTSBURGH INT CLEAR     60  41  49 CALM      30.34S
PITTSBURGH     CLEAR     62  34  35 S5        30.34S
INDIANA*       PTCLDY    50  41  71 E5        30.39S
LATROBE        NOT AVBL
WASHINGTON CO* CLEAR     46  41  81 CALM      30.37S
$$

PAZ004>006-010>012-017>019-024>028-033>037-041-042-045-046-049>053-240400-
CENTRAL PENNSYLVANIA

CITY           SKY/WX    TMP DP  RH WIND       PRES   REMARKS
BRADFORD       CLEAR     41  33  73 SE3       30.35S
DUBOIS         CLEAR     53  31  42 S3        30.35S
CLEARFIELD     CLEAR     48  35  60 N5        30.36F
JOHNSTOWN      CLEAR     58  32  37 SW6       30.37S
ALTOONA        CLEAR     52  36  54 S6        30.37S
STATE COLLEGE  CLEAR     53  34  48 CALM      30.36F
WILLIAMSPORT   CLEAR     51  39  63 N6        30.34R
SELINSGROVE    CLEAR     47  42  83 CALM      30.36R
FT INDIANTOWN  CLEAR     48  37  66 NE2       30.36S
CAPITAL CITY   CLEAR     57  39  51 N5        30.36S
HARRISBURG     PTCLDY    60  44  55 VRB3      30.35S
YORK           CLEAR     57  38  48 S3        30.37R
$$

PAZ038>040-043-044-047-048-054-055-060>062-067>071-240400-
EASTERN PENNSYLVANIA

CITY           SKY/WX    TMP DP  RH WIND       PRES   REMARKS
SCRANTON       CLEAR     51  33  50 SE5       30.34S
MOUNT POCONO   CLEAR     42  33  70 CALM      30.35S
ALLENTOWN      CLEAR     51  33  50 CALM      30.36R
QUAKERTOWN*    CLEAR     46  37  71 CALM      30.38R
READING        CLEAR     55  35  47 SW3       30.36R
LANCASTER      CLEAR     56  39  53 S5        30.37R
COATESVILLE    CLEAR     57  37  47 SW5       30.39S
POTTSTOWN      CLEAR     52  35  52 CALM      30.39R
BLUE BELL      CLEAR     52  37  58 CALM      30.37S
DOYLESTOWN     CLEAR     51  32  48 CALM      30.36S
WILLOW GROVE   NOT AVBL
NORTH PHILA    CLEAR     59  34  39 CALM      30.39R
PHILADELPHIA   CLEAR     60  43  53 S10       30.39R
$$



USA.gov is the U.S. government's official web portal to all federal, state and local government web resources and services.